Bismarck, ND

2:03 PM CDT on September 29, 2016 (GMT -0500)
Bismarck Municipal

Weather History for KBIS - September, 2014

Change the Weather History Date:

Sunday, September 21, 2014

  Actual Average Record
Temperature  
Mean Temperature 60 °F 56 °F  
Max Temperature 75 °F 70 °F 93 °F (1937)
Min Temperature 44 °F 43 °F 20 °F (1878)
Degree Days  
Heating Degree Days 5 9  
Month to date heating degree days 152 127  
Since 1 July heating degree days 214 182  
Cooling Degree Days 0 1  
Month to date cooling degree days 15 36  
Year to date cooling degree days 421 517  
Growing Degree Days 10 (Base 50)    
Moisture  
Dew Point 43 °F    
Average Humidity 57    
Maximum Humidity 86    
Minimum Humidity 27    
Precipitation  
Precipitation 0.00 in 0.05 in 0.63 in (2000)
Month to date precipitation 0.26 1.17  
Year to date precipitation 12.95 14.98  
Snow  
Snow 0.00 in 0.00 in 0.00 in (2002)
Month to date snowfall 0.0 0.1  
Since 1 July snowfall 0.0 0.1  
Since 1 September snowfall 0.0 0.1  
Snow Depth 0.00 in    
Sea Level Pressure  
Sea Level Pressure 30.24 in    
Wind  
Wind Speed 5 mph (NW)    
Max Wind Speed 12 mph    
Max Gust Speed 17 mph    
Visibility 10 miles    
Events      
T = Trace of Precipitation, MM = Missing Value Source: NWS Daily Summary

Daily Weather History Graph

Daily Weather History Graph

Search for Another Location

Airport or City:

Trip Planner

Search our weather history database for the weather conditions in past years. The results will help you decide how hot, cold, wet, or windy it might be!

Date:

Astronomy

Sep. 21, 2014 Rise Set
Actual Time 7:28 AM CDT 7:42 PM CDT
Civil Twilight 6:58 AM CDT 8:12 PM CDT
Nautical Twilight 6:22 AM CDT 8:48 PM CDT
Astronomical Twilight 5:45 AM CDT 9:25 PM CDT
Moon 4:57 AM CDT (9/21) 6:24 PM CDT (9/21)
Length of Visible Light 13h 14m
Length of Day
12h 13m
Waning Crescent, 6% of the Moon is Illuminated
Sep 21
Waning Crescent
Sep 24
New
Oct 1
First Quarter
Oct 8
Full
Oct 15
Last Quarter

Hourly Weather History & Observations

Time (CDT) Temp. Dew Point Humidity Pressure Visibility Wind Dir Wind Speed Gust Speed Precip Events Conditions
12:52 AM 55.0 °F 41.0 °F 59% 30.15 in 10.0 mi NW 9.2 mph - N/A   Clear
1:52 AM 51.1 °F 42.1 °F 71% 30.16 in 10.0 mi West 5.8 mph - N/A   Clear
2:52 AM 50.0 °F 42.1 °F 74% 30.17 in 10.0 mi WNW 8.1 mph - N/A   Clear
3:52 AM 50.0 °F 42.1 °F 74% 30.19 in 10.0 mi WNW 6.9 mph - N/A   Clear
4:52 AM 48.9 °F 42.1 °F 77% 30.20 in 10.0 mi NW 10.4 mph - N/A   Clear
5:52 AM 48.0 °F 42.1 °F 80% 30.23 in 10.0 mi NW 8.1 mph - N/A   Clear
6:52 AM 48.0 °F 42.1 °F 80% 30.25 in 10.0 mi WNW 5.8 mph - N/A   Clear
7:52 AM 46.9 °F 42.1 °F 83% 30.27 in 10.0 mi West 5.8 mph - N/A   Clear
8:52 AM 51.8 °F 42.8 °F 71% 30.28 in 10.0 mi West 8.1 mph - N/A   Clear
9:52 AM 57.0 °F 43.0 °F 59% 30.30 in 10.0 mi NW 4.6 mph - N/A   Clear
10:52 AM 61.0 °F 46.0 °F 58% 30.31 in 10.0 mi West 4.6 mph - N/A   Clear
11:52 AM 66.0 °F 46.9 °F 50% 30.30 in 10.0 mi Variable 3.5 mph - N/A   Clear
12:52 PM 70.0 °F 45.0 °F 41% 30.29 in 10.0 mi NW 6.9 mph - N/A   Clear
1:52 PM 72.0 °F 46.0 °F 40% 30.28 in 10.0 mi West 5.8 mph - N/A   Clear
2:52 PM 73.9 °F 43.0 °F 33% 30.26 in 10.0 mi NW 5.8 mph - N/A   Clear
3:52 PM 73.9 °F 41.0 °F 30% 30.25 in 10.0 mi NW 9.2 mph - N/A   Clear
4:52 PM 75.0 °F 39.9 °F 28% 30.23 in 10.0 mi NNW 5.8 mph 16.1 mph N/A   Clear
5:52 PM 73.0 °F 41.0 °F 31% 30.23 in 10.0 mi NNW 6.9 mph - N/A   Clear
6:52 PM 71.1 °F 43.0 °F 36% 30.22 in 10.0 mi Calm Calm - N/A   Clear
7:52 PM 61.0 °F 44.1 °F 54% 30.23 in 10.0 mi SE 3.5 mph - N/A   Clear
8:52 PM 57.9 °F 44.1 °F 60% 30.23 in 10.0 mi East 3.5 mph - N/A   Clear
9:52 PM 53.1 °F 45.0 °F 74% 30.24 in 10.0 mi ENE 3.5 mph - N/A   Clear
10:52 PM 51.8 °F 44.6 °F 76% 30.21 in 10.0 mi ENE 3.5 mph - N/A   Clear
11:52 PM 48.9 °F 43.0 °F 80% 30.22 in 10.0 mi ENE 3.5 mph - N/A   Clear